This is the latest recevied weather packets stored in our database for station/object EB1BWO-11. If no packets are shown the sender has not sent any weather packets the latest 10 day(s).
| Time | Temp. | Humidity | Pressure | Rain* | Wind** | Luminosity | Snow |
|---|---|---|---|---|---|---|---|
| 1777622146 | 18.33° C | 67% | 1022 hPa | - | - | - | - |
| 1777621246 | 16.67° C | 68% | 1022 hPa | - | - | - | - |
| 1777620346 | 15.56° C | 70% | 1022.1 hPa | - | - | - | - |
| 1777619446 | 15° C | 70% | 1022.1 hPa | - | - | - | - |
| 1777618546 | 14.44° C | 71% | 1022.1 hPa | - | - | - | - |
| 1777617645 | 14.44° C | 72% | 1022 hPa | - | - | - | - |
| 1777616745 | 14.44° C | 71% | 1021.9 hPa | - | - | - | - |
| 1777615845 | 13.89° C | 71% | 1021.9 hPa | - | - | - | - |
| 1777614945 | 13.33° C | 72% | 1021.9 hPa | - | - | - | - |
| 1777614045 | 12.78° C | 72% | 1022 hPa | - | - | - | - |
| 1777613145 | 13.33° C | 72% | 1021.9 hPa | - | - | - | - |
| 1777612245 | 12.78° C | 73% | 1021.9 hPa | - | - | - | - |
| 1777611345 | 12.78° C | 73% | 1021.7 hPa | - | - | - | - |
| 1777610444 | 12.78° C | 72% | 1021.8 hPa | - | - | - | - |
| 1777609544 | 12.78° C | 72% | 1021.6 hPa | - | - | - | - |
| 1777608644 | 12.78° C | 72% | 1021.7 hPa | - | - | - | - |
| 1777607744 | 12.78° C | 72% | 1021.8 hPa | - | - | - | - |
| 1777606844 | 12.78° C | 72% | 1021.7 hPa | - | - | - | - |
| 1777605944 | 12.78° C | 72% | 1021.7 hPa | - | - | - | - |
| 1777605044 | 12.78° C | 73% | 1021.9 hPa | - | - | - | - |
| 1777604143 | 12.78° C | 72% | 1021.9 hPa | - | - | - | - |
| 1777603243 | 13.33° C | 71% | 1021.8 hPa | - | - | - | - |
| 1777602342 | 13.33° C | 72% | 1021.8 hPa | - | - | - | - |
| 1777601442 | 13.33° C | 72% | 1022 hPa | - | - | - | - |
| 1777600542 | 12.78° C | 72% | 1021.9 hPa | - | - | - | - |
* Rain since midnight (hover to see other rain measurements)
** Current wind speed in m/s (hover to see current wind gust speed)